Voltar ao catálogo

STARLINK-30136

AtivoComunicaçõesVLEO
NORAD 56844·PAYLOAD·🇺🇸 United States

Lançado Jun 4, 2023 de Cape Canaveral Space Force Station

Loading…

Próximas Passagens (próximas 24 horas)

TLE

AtualizadoSource: CelesTrak SupGP

Época: Sep 14, 2026, 21:31 UTC

1 56844C 23079X   26257.89701389 -.00029185  00000+0 -10573-2 0  2576
2 56844  42.9999 118.4508 0001153 257.1440 134.5791 15.27587244    17

Acompanhe STARLINK-30136 em tempo real com AllMySat

Download on the App Store